Weather History for KBDR - April, 2014

Change the Weather History Date:

Wednesday, April 16, 2014

  Actual Average Record
Temperature  
Mean Temperature 39 °F 50 °F  
Max Temperature 47 °F 58 °F 85 °F (2002)
Min Temperature 31 °F 41 °F 29 °F (1981)
Degree Days  
Heating Degree Days 26 15  
Month to date heating degree days 273 289  
Since 1 July heating degree days 5255 4973  
Cooling Degree Days 0 0  
Month to date cooling degree days 0 0  
Year to date cooling degree days 0 0  
Moisture  
Dew Point 19 °F    
Average Humidity 47    
Maximum Humidity 69    
Minimum Humidity 25    
Precipitation  
Precipitation 0.09 in 0.14 in 5.28 in (1996)
Month to date precipitation 2.25 2.29  
Year to date precipitation 14.45 12.23  
Snow  
Snow 0.10 in 0.00 in 0.10 in (2014)
Month to date snowfall 0.1 0.7  
Since 1 July snowfall 57.1 27.4  
Snow Depth 0.00 in    
Sea Level Pressure  
Sea Level Pressure 30.27 in    
Wind  
Wind Speed 15 mph (NNW)    
Max Wind Speed 28 mph    
Max Gust Speed 37 mph    
Visibility 10 miles    
Events Rain , Snow    
T = Trace of Precipitation, MM = Missing Value Source: NWS Daily Summary

Daily Weather History Graph

Daily Weather History Graph

Search for Another Location

Airport or City:

Trip Planner

Search our weather history database for the weather conditions in past years. The results will help you decide how hot, cold, wet, or windy it might be!

Date:

Astronomy

Apr. 16, 2014 Rise Set
Actual Time 6:11 AM EDT 7:33 PM EDT
Civil Twilight 5:43 AM EDT 8:02 PM EDT
Nautical Twilight 5:08 AM EDT 8:36 PM EDT
Astronomical Twilight 4:32 AM EDT 9:13 PM EDT
Moon 9:15 PM EDT (4/16) 6:56 AM EDT (4/16)
Length of Visible Light 14h 19m
Length of Day
13h 21m
Full, 98% of the Moon is Illuminated
Apr 16
Full
Apr 22
Last Quarter
Apr 29
New
May 6
First Quarter
May 14
Full

Hourly Weather History & Observations

Time (EDT) Temp. Windchill Dew Point Humidity Pressure Visibility Wind Dir Wind Speed Gust Speed Precip Events Conditions
12:52 AM 35.1 °F 23.3 °F 30.9 °F 85% 29.89 in 8.0 mi NNW 23.0 mph 29.9 mph 0.01 in Snow Light Snow
1:52 AM 34.0 °F 25.0 °F 28.9 °F 82% 29.91 in 7.0 mi NNW 12.7 mph 28.8 mph 0.02 in Rain Light Rain
2:37 AM 33.1 °F 26.9 °F 28.9 °F 85% 29.93 in 8.0 mi NNW 6.9 mph 18.4 mph 0.07 in Rain Light Rain
2:52 AM 34.0 °F 26.0 °F 28.9 °F 82% 29.98 in 10.0 mi NW 10.4 mph 17.3 mph 0.07 in   Overcast
3:52 AM 33.8 °F 23.2 °F 24.8 °F 70% 29.94 in 10.0 mi NNW 17.3 mph 27.6 mph N/A   Partly Cloudy
4:52 AM 33.1 °F 22.6 °F 21.9 °F 64% 30.05 in 10.0 mi NW 16.1 mph 26.5 mph N/A   Clear
5:52 AM 32.0 °F 21.6 °F 19.9 °F 61% 30.10 in 10.0 mi NW 15.0 mph 29.9 mph N/A   Clear
6:52 AM 32.0 °F 20.5 °F 19.9 °F 61% 30.18 in 10.0 mi NNW 18.4 mph 26.5 mph N/A   Clear
7:52 AM 32.0 °F 19.5 °F 18.0 °F 56% 30.22 in 10.0 mi NNW 21.9 mph 29.9 mph N/A   Clear
8:52 AM 33.1 °F 20.9 °F 16.0 °F 50% 30.25 in 10.0 mi NNW 21.9 mph 31.1 mph N/A   Clear
9:52 AM 35.6 °F 24.5 °F 17.6 °F 48% 30.29 in 10.0 mi NNW 20.7 mph 28.8 mph N/A   Clear
10:52 AM 37.9 °F 27.3 °F 17.1 °F 43% 30.32 in 10.0 mi NNW 21.9 mph 28.8 mph N/A   Clear
11:52 AM 39.9 °F 31.4 °F 17.1 °F 40% 30.35 in 10.0 mi NNW 16.1 mph 24.2 mph N/A   Clear
12:52 PM 42.1 °F 33.1 °F 14.0 °F 32% 30.37 in 10.0 mi NNW 20.7 mph 29.9 mph N/A   Clear
1:52 PM 44.6 °F 36.1 °F 12.2 °F 27% 30.39 in 10.0 mi NNW 21.9 mph 31.1 mph N/A   Clear
2:52 PM 45.0 °F 36.9 °F 10.9 °F 25% 30.39 in 10.0 mi NW 20.7 mph 29.9 mph N/A   Clear
3:52 PM 46.0 °F 38.8 °F 14.0 °F 28% 30.40 in 10.0 mi NNW 18.4 mph 24.2 mph N/A   Clear
4:52 PM 46.9 °F - 12.0 °F 24% 30.41 in 10.0 mi North 17.3 mph 21.9 mph N/A   Clear
5:52 PM 46.0 °F 39.9 °F 12.9 °F 26% 30.44 in 10.0 mi NNW 13.8 mph - N/A   Clear
6:52 PM 44.1 °F 36.8 °F 12.9 °F 28% 30.46 in 10.0 mi NNW 16.1 mph 20.7 mph N/A   Clear
7:52 PM 42.1 °F 37.1 °F 16.0 °F 35% 30.48 in 10.0 mi North 8.1 mph - N/A   Clear
8:52 PM 39.9 °F 35.1 °F 17.1 °F 40% 30.52 in 10.0 mi North 6.9 mph - N/A   Clear
9:52 PM 39.0 °F 33.4 °F 18.0 °F 43% 30.55 in 10.0 mi North 8.1 mph - N/A   Clear
10:52 PM 37.9 °F 32.1 °F 18.0 °F 45% 30.56 in 10.0 mi North 8.1 mph - N/A   Clear
11:52 PM 37.9 °F 31.5 °F 18.0 °F 45% 30.58 in 10.0 mi North 9.2 mph - N/A   Clear